Date String (YYYY-MM-DD hh:mm:ss) UTC,Instrument flags,Ambient pressure (hPa),Sample flow (lpm),Bypass flow (lpm),Sample temperature (°C),Ambient temperature (°C),ASC tube jacket temperature (°C),LED temperature (°C),Box temperature (°C),Sample RH (%),Span deviation,Mass concentration (μg/m³),Mass concentration (μg/m³),Mass concentration (μg/m³)
DateTimeUTC,F1_M11,P_M11,Q1_M11,Q2_M11,T1_M11,T2_M11,T3_M11,T4_M11,T5_M11,U1_M11,ZSPAN_M11,X0_M11,X2_M11,X1_M11
2023-02-08 17:00:00,,0823.9,5.02,0.00,23.7,22.6,00.0,32.4,25.5,11.3,0000.0,0008.19,0003.67,0002.95
2023-02-08 17:01:00,,0824.0,4.98,0.00,23.7,22.6,00.0,32.4,25.5,11.1,0000.0,0008.23,0003.67,0002.95
2023-02-08 17:02:00,,0824.0,5.04,0.00,23.7,22.6,00.0,32.4,25.5,10.7,0000.0,0008.13,0003.63,0002.91
2023-02-08 17:03:00,,0824.0,4.99,0.00,23.7,22.6,00.0,32.4,25.5,10.9,0000.0,0008.03,0003.61,0002.85
2023-02-08 17:04:00,,0824.0,4.99,0.00,23.8,22.7,00.0,32.5,25.5,11.3,0000.0,0008.07,0003.63,0002.81
2023-02-08 17:05:00,,0824.0,5.03,0.00,23.8,22.7,00.0,32.5,25.5,11.5,0000.0,0008.20,0003.62,0002.74
2023-02-08 17:06:00,,0823.9,4.98,0.00,23.8,22.7,00.0,32.5,25.6,11.6,0000.0,0008.32,0003.63,0002.67
2023-02-08 17:07:00,,0824.0,5.01,0.00,23.8,22.7,00.0,32.5,25.6,12.1,0000.0,0009.11,0003.62,0002.63
2023-02-08 17:08:00,,0824.0,4.97,0.00,23.8,22.7,00.0,32.5,25.6,11.8,0000.0,0009.14,0003.59,0002.56
2023-02-08 17:09:00,,0824.0,4.99,0.00,23.8,22.7,00.0,32.5,25.6,11.8,0000.0,0008.98,0003.61,0002.52
2023-02-08 17:10:00,,0824.0,5.00,0.00,23.9,22.8,00.0,32.6,25.6,11.9,0000.0,0009.32,0003.63,0002.49
2023-02-08 17:11:00,,0824.0,5.01,0.00,23.9,22.8,00.0,32.6,25.6,11.8,0000.0,0009.96,0003.68,0002.47
2023-02-08 17:12:00,,0823.9,5.04,0.00,23.9,22.8,00.0,32.6,25.6,11.7,0000.0,0010.19,0003.74,0002.45
2023-02-08 17:13:00,,0824.0,5.00,0.00,23.9,22.8,00.0,32.6,25.6,11.4,0000.0,0010.57,0003.85,0002.47
2023-02-08 17:14:00,,0824.0,4.96,0.00,23.9,22.8,00.0,32.6,25.6,11.5,0000.0,0011.00,0003.95,0002.50
2023-02-08 17:15:00,,0824.0,4.99,0.00,23.9,22.8,00.0,32.6,25.7,11.3,0000.0,0011.67,0004.05,0002.51
2023-02-08 17:16:00,,0824.0,4.96,0.00,23.9,22.8,00.0,32.6,25.7,11.1,0000.0,0012.65,0004.15,0002.54
2023-02-08 17:17:00,,0824.0,5.01,0.00,23.9,22.9,00.0,32.7,25.7,11.0,0000.0,0013.27,0004.20,0002.57
2023-02-08 17:18:00,,0824.0,5.01,0.00,24.0,22.9,00.0,32.7,25.7,11.0,0000.0,0014.01,0004.24,0002.57
2023-02-08 17:19:00,,0824.0,5.01,0.00,24.0,22.9,00.0,32.7,25.7,10.8,0000.0,0014.32,0004.33,0002.61
2023-02-08 17:20:00,,0824.0,4.98,0.00,24.0,22.9,00.0,32.7,25.8,11.0,0000.0,0015.96,0004.37,0002.62
2023-02-08 17:21:00,,0824.0,5.02,0.00,24.0,22.9,00.0,32.7,25.8,11.2,0000.0,0016.11,0004.40,0002.63
2023-02-08 17:22:00,,0824.0,4.96,0.00,24.0,22.9,00.0,32.7,25.9,10.7,0000.0,0015.73,0004.35,0002.64
2023-02-08 17:23:00,,0824.0,5.01,0.00,24.0,22.9,00.0,32.7,25.9,10.4,0000.0,0015.70,0004.30,0002.62
2023-02-08 17:24:00,,0824.0,4.98,0.00,24.0,23.0,00.0,32.8,25.9,10.9,0000.0,0016.07,0004.30,0002.64
2023-02-08 17:25:00,,0824.0,4.99,0.00,24.1,23.0,00.0,32.8,25.9,10.5,0000.0,0016.15,0004.24,0002.64
2023-02-08 17:26:00,,0824.0,5.02,0.00,24.1,23.0,00.0,32.8,25.9,10.9,0000.0,0016.62,0004.21,0002.67
2023-02-08 17:27:00,,0824.0,4.99,0.00,24.1,23.0,00.0,32.8,26.0,10.5,0000.0,0016.48,0004.17,0002.67
2023-02-08 17:28:00,,0824.0,5.03,0.00,24.1,23.0,00.0,32.8,25.9,10.7,0000.0,0016.31,0004.22,0002.69
2023-02-08 17:29:00,,0824.1,4.97,0.00,24.1,23.0,00.0,32.8,25.9,10.7,0000.0,0015.36,0004.23,0002.71
2023-02-08 17:30:00,,0824.1,4.99,0.00,24.1,23.0,00.0,32.9,26.0,10.4,0000.0,0015.36,0004.21,0002.73
2023-02-08 17:31:00,,0824.0,5.02,0.00,24.2,23.1,00.0,32.9,26.0,10.4,0000.0,0013.81,0004.21,0002.76
2023-02-08 17:32:00,,0824.1,4.96,0.00,24.2,23.1,00.0,32.9,26.0,10.5,0000.0,0013.19,0004.18,0002.79
2023-02-08 17:33:00,,0824.1,5.03,0.00,24.2,23.1,00.0,32.9,26.0,10.4,0000.0,0012.91,0004.19,0002.82
2023-02-08 17:34:00,,0824.1,5.02,0.00,24.2,23.1,00.0,32.9,26.0,10.6,0000.0,0012.79,0004.22,0002.87
2023-02-08 17:35:00,,0824.1,5.02,0.00,24.2,23.1,00.0,32.9,26.0,10.2,0000.0,0012.19,0004.16,0002.86
2023-02-08 17:36:00,,0824.1,5.01,0.00,24.2,23.1,00.0,32.9,26.1,10.3,0000.0,0012.34,0004.16,0002.88
2023-02-08 17:37:00,,0824.1,4.96,0.00,24.2,23.2,00.0,33.0,26.1,10.4,0000.0,0011.39,0004.08,0002.89
2023-02-08 17:38:00,,0824.1,4.94,0.00,24.3,23.2,00.0,33.0,26.1,10.3,0000.0,0011.33,0004.06,0002.94
2023-02-08 17:39:00,,0824.1,5.00,0.00,24.3,23.2,00.0,33.0,26.1,10.3,0000.0,0011.23,0004.05,0002.98
2023-02-08 17:40:00,,0824.1,4.96,0.00,24.3,23.2,00.0,33.0,26.1,10.4,0000.0,0010.97,0004.06,0003.02
2023-02-08 17:41:00,,0824.1,5.03,0.00,24.3,23.2,00.0,33.0,26.1,10.3,0000.0,0010.64,0004.08,0003.10
2023-02-08 17:42:00,,0824.1,4.99,0.00,24.3,23.2,00.0,33.0,26.1,10.3,0000.0,0011.41,0004.09,0003.15
2023-02-08 17:43:00,,0824.1,4.98,0.00,24.3,23.2,00.0,33.0,26.2,10.5,0000.0,0011.58,0004.11,0003.20
2023-02-08 17:44:00,,0824.1,5.07,0.00,24.4,23.2,00.0,33.1,26.2,10.5,0000.0,0012.01,0004.20,0003.28
2023-02-08 17:45:00,,0824.1,5.03,0.00,24.4,23.2,00.0,33.1,26.2,10.2,0000.0,0012.27,0004.26,0003.36
2023-02-08 17:46:00,,0824.1,4.97,0.00,24.4,23.2,00.0,33.1,26.2,10.1,0000.0,0012.37,0004.36,0003.44
2023-02-08 17:47:00,,0824.1,4.95,0.00,24.4,23.2,00.0,33.1,26.2,10.1,0000.0,0011.86,0004.45,0003.52
2023-02-08 17:48:00,,0824.1,5.04,0.00,24.4,23.3,00.0,33.1,26.2,10.4,0000.0,0011.66,0004.53,0003.60
2023-02-08 17:49:00,,0824.1,5.02,0.00,24.4,23.3,00.0,33.1,26.2,10.1,0000.0,0011.00,0004.61,0003.66
2023-02-08 17:50:00,,0824.1,5.00,0.00,24.4,23.3,00.0,33.1,26.2,10.4,0000.0,0011.03,0004.63,0003.71
2023-02-08 17:51:00,,0824.0,5.03,0.00,24.4,23.3,00.0,33.2,26.3,10.2,0000.0,0010.97,0004.63,0003.77
2023-02-08 17:52:00,,0824.1,5.00,0.00,24.5,23.3,00.0,33.2,26.3,10.2,0000.0,0010.95,0004.66,0003.81
2023-02-08 17:53:00,,0824.0,5.04,0.00,24.5,23.3,00.0,33.2,26.3,10.0,0000.0,0010.18,0004.66,0003.82
2023-02-08 17:54:00,,0824.0,5.03,0.00,24.5,23.3,00.0,33.2,26.3,09.7,0000.0,0010.04,0004.67,0003.80
2023-02-08 17:55:00,,0824.0,4.92,0.00,24.5,23.3,00.0,33.2,26.3,09.5,0000.0,0009.65,0004.61,0003.75
2023-02-08 17:56:00,,0824.0,4.96,0.00,24.5,23.3,00.0,33.2,26.3,09.6,0000.0,0009.51,0004.58,0003.72
2023-02-08 17:57:00,,0824.0,5.02,0.00,24.5,23.3,00.0,33.2,26.3,09.7,0000.0,0009.42,0004.54,0003.69
2023-02-08 17:58:00,,0824.0,5.00,0.00,24.5,23.3,00.0,33.2,26.3,09.9,0000.0,0009.52,0004.53,0003.68
2023-02-08 17:59:00,,0824.0,5.02,0.00,24.5,23.3,00.0,33.2,26.3,09.9,0000.0,0010.44,0004.54,0003.66
